Flag for U.S.A. Weather past 2 weeks in Wheaton, Illinois, U.S.A.

Now
57 °F

Clear.


Feels Like: 55 °F
Forecast: 46 / 73 °F
Wind: 9 mph from Southeast

Location: Dupage Airport


UV Index: 5 (Moderate)

Visibility: 10 mi


Pressure: 30.22 "Hg

Humidity: 49%

Dew point: 38 °F

Location of WheatonLocation

Historic Weather in Wheaton

°F

Wheaton temperature yesterday

Maximum temperature yesterday: 59 °F (at 1:52 PM)
Minimum temperature yesterday: 35 °F (at 5:52 AM)
Average temperature yesterday: 46 °F

Past Weeks' High & Low Weather Summary

 TemperatureHumidityPressure
High79 °F (Apr 12, 3:52 PM)96% (Apr 13, 6:52 PM)30.38 "Hg (Apr 13, 6:52 PM)
Low24 °F (Apr 15, 5:52 AM)16% (Apr 11, 11:52 AM)29.35 "Hg (Apr 14, 2:52 AM)
Average48 °F59%29.98 "Hg
* Reported Apr 4 8:52 PM — Apr 19 8:52 PM, Wheaton, Weather by CustomWeather, © 2014

Note: Actual official high and low records may vary slightly from our data, if they occured in-between our weather recording intervals... More about our weather records

Advertising

Historic Weather Conditions — Data for Previous 24 hours

 ConditionsComfort  
Time TempWeatherWind HumidityBarometerVisibility
8:52 PM
Apr 19
58 °FClear.6 mph44%30.22 "Hg10 mi
7:52 PM59 °FSunny.7 mph41%30.21 "Hg10 mi
6:52 PM66 °FSunny.12 mph32%30.20 "Hg10 mi
5:52 PM67 °FSunny.12 mph30%30.22 "Hg10 mi
4:52 PM68 °FSunny.14 mph27%30.22 "Hg10 mi
3:52 PM69 °FSunny.13 mph26%30.24 "Hg10 mi
2:52 PM67 °FSunny.10 mph30%30.27 "Hg10 mi
1:52 PM65 °FSunny.6 mph33%30.30 "Hg10 mi
12:52 PM62 °FSunny.9 mph32%30.32 "Hg10 mi
11:52 AM58 °FSunny.7 mph43%30.34 "Hg10 mi
10:52 AM55 °FSunny.9 mph47%30.35 "Hg10 mi
9:52 AM50 °FSunny.12 mph54%30.37 "Hg10 mi
8:52 AM45 °FSunny.8 mph63%30.38 "Hg10 mi
7:52 AM41 °FSunny.14 mph67%30.38 "Hg10 mi
6:52 AM37 °FClear.8 mph76%30.37 "Hg10 mi
5:52 AM33 °FClear.6 mph82%30.36 "Hg10 mi
4:52 AM31 °FClear.6 mph82%30.36 "Hg10 mi
3:52 AM36 °FClear.7 mph73%30.36 "Hg10 mi
2:52 AM37 °FClear.9 mph70%30.36 "Hg10 mi
1:52 AM37 °FClear.9 mph67%30.35 "Hg10 mi
12:52 AM36 °FClear.8 mph67%30.36 "Hg10 mi
11:52 PM
Apr 18
37 °FClear.9 mph67%30.37 "Hg10 mi
10:52 PM37 °FClear.8 mph70%30.37 "Hg10 mi
Weather by CustomWeather, © 2014

See weather overview